Regional Weather Roundup
Issued by NWS

Home | Current Version | Previous Version | Text Only | Print | Product List | Glossary Off
Versions: 1 2 3 4 5 6 7 8 9 10 11 12 13 14 15 16 17 18 19 20 21 22 23 24 25 26 27 28 29 30 31 32 33 34 35 36 37 38 39 40 41 42 43 44 45 46 47 48 49 50

000
ASUS43 KLOT 251858
RWRIL

ILLINOIS REGIONAL WEATHER ROUNDUP
NATIONAL WEATHER SERVICE CHICAGO/ROMEOVILLE IL
100 PM CST THU DEC 25 2014

NOTE: "FAIR" INDICATES FEW OR NO CLOUDS BELOW 12,000 FEET WITH NO
SIGNIFICANT WEATHER AND/OR OBSTRUCTIONS TO VISIBILITY.

* THESE STATIONS ARE NOT UNDER NWS QUALITY CONTROL. THEY ALSO MAY NOT
  REPORT WEATHER SUCH AS PRECIPITATION OR FOG.

ILZ001-002-007-009-015-016-024-252000-
NORTHWEST ILLINOIS

CITY           SKY/WX    TMP DP  RH WIND       PRES   REMARKS
MOLINE         SUNNY     46  32  58 S15       29.88F
$$

ILZ003-004-008-010-011-017-018-252000-
NORTH CENTRAL ILLINOIS

CITY           SKY/WX    TMP DP  RH WIND       PRES   REMARKS
ROCKFORD       NOT AVBL
$$

ILZ005-006-012>014-019>023-252000-
NORTHEAST ILLINOIS

CITY           SKY/WX    TMP DP  RH WIND       PRES   REMARKS
CHICAGO-OHARE  PTSUNNY   39  29  67 SW16G24   29.95R WCI  30
CHICAGO-MIDWAY NOT AVBL
AURORA         MOSUNNY   41  31  67 S15G21    29.95F
WAUKEGAN       NOT AVBL
DUPAGE AIRPORT MOSUNNY   40  31  70 SW15      29.94F
WHEELING       MOSUNNY   40  29  64 SW14G23   29.96S
NORTHERLY ISL    N/A     39  28  65 S14         N/A  WCI  31
$$

LMZ740>746-252000-
SOUTHERN LAKE MICHIGAN

STATION/POSITION SKY/WX   TEMP    WIND        PRES    VSBY  WAVE
                          AIR SEA DIR/SP/G                  HT/PER
                          (F)     (DEG/KT/KT) (MB)    (MI)  (FT/S)
WAUKEGAN HARBOR            38                   N/A
HARRISON CRIB              36     210/ 20/ 26   N/A
BURNHAM HARBOR             39     220/ 10/ 15   N/A
CALUMET HARBOR             38     210/  9/ 20 1013.7S
MICHIGAN CITY              36     200/ 17/ 22   N/A
$$

ILZ025>027-034>036-040-047-049-050-058-095>099-252000-
WEST-CENTRAL ILLINOIS

CITY           SKY/WX    TMP DP  RH WIND       PRES   REMARKS
$$

ILZ028>032-037-038-041>044-048-051>054-059>061-252000-
CENTRAL ILLINOIS

CITY           SKY/WX    TMP DP  RH WIND       PRES   REMARKS
PEORIA         NOT AVBL
SPRINGFIELD    SUNNY     47  35  63 S17       29.96F
TAYLORVILLE    NOT AVBL
$$

ILZ033-039-045-046-055>057-062-063-252000-
EAST-CENTRAL ILLINOIS

CITY           SKY/WX    TMP DP  RH WIND       PRES   REMARKS
CHAMPAIGN      MOSUNNY   43  36  76 S17       30.00F
MATTOON        MOSUNNY   43  34  70 S13G20    30.02F
$$

ILZ079-100>102-252000-
SOUTHWEST ILLINOIS

CITY           SKY/WX    TMP DP  RH WIND       PRES   REMARKS
CAHOKIA*       SUNNY     50  35  56 S14G21    29.99F
$$

ILZ064>066-069>071-074>076-080>082-084>086-088>090-092>094-252000-
SOUTH-CENTRAL ILLINOIS

CITY           SKY/WX    TMP DP  RH WIND       PRES   REMARKS
CARBONDALE     SUNNY     47  34  60 S18       30.08F
MARION         MOSUNNY   48  36  61 S18G25    30.10F
$$

ILZ067-068-072-073-078-083-087-091-252000-
SOUTHEAST ILLINOIS

CITY           SKY/WX    TMP DP  RH WIND       PRES   REMARKS
$$

ABBREVIATIONS USED IN REMARKS
   TC - TEMPERATURE IN CELSIUS
  WCI - WIND CHILL INDEX
   HX - HEAT INDEX
  VSB - VISIBILITY
$$



USA.gov is the U.S. government's official web portal to all federal, state and local government web resources and services.